Time,TemperatureF,DewpointF,PressureIn,WindDirection,WindDirectionDegrees,WindSpeedMPH,WindSpeedGustMPH,Humidity,HourlyPrecipIn,Conditions,Clouds,dailyrainin,SolarRadiationWatts/m^2,SoftwareType,DateUTC
2013-05-24 00:05:00,50.9,46.0,30.00,West,270,5.0,6.0,82,0.00,,,0.00,0,weatherlink.com 1.10,2013-05-24 07:05:00,
2013-05-24 00:20:00,50.5,46.0,29.99,SW,230,1.0,7.0,84,0.00,,,0.00,0,weatherlink.com 1.10,2013-05-24 07:20:00,
2013-05-24 00:35:00,50.3,46.0,29.99,West,267,3.0,5.0,85,0.00,,,0.00,0,weatherlink.com 1.10,2013-05-24 07:35:00,
2013-05-24 00:50:00,50.2,46.0,30.00,SW,223,1.0,6.0,85,0.00,,,0.00,0,weatherlink.com 1.10,2013-05-24 07:50:00,
2013-05-24 01:05:00,50.4,46.0,29.99,West,273,2.0,5.0,86,0.00,,,0.00,0,weatherlink.com 1.10,2013-05-24 08:05:00,
2013-05-24 01:20:00,50.1,46.0,29.99,West,274,3.0,5.0,86,0.00,,,0.00,0,weatherlink.com 1.10,2013-05-24 08:20:00,
2013-05-24 01:35:00,49.8,46.0,29.98,WNW,290,3.0,6.0,87,0.00,,,0.00,0,weatherlink.com 1.10,2013-05-24 08:35:00,
2013-05-24 01:50:00,49.7,46.0,29.99,WSW,250,2.0,6.0,87,0.00,,,0.00,0,weatherlink.com 1.10,2013-05-24 08:50:00,
2013-05-24 02:05:00,49.7,46.0,29.98,WSW,238,2.0,8.0,87,0.00,,,0.00,0,weatherlink.com 1.10,2013-05-24 09:05:00,
2013-05-24 02:20:00,49.6,46.0,29.98,West,265,3.0,7.0,87,0.00,,,0.00,0,weatherlink.com 1.10,2013-05-24 09:20:00,
2013-05-24 02:35:00,49.6,46.0,29.98,WNW,286,2.0,8.0,88,0.00,,,0.00,0,weatherlink.com 1.10,2013-05-24 09:35:00,
2013-05-24 02:50:00,49.3,46.0,29.98,WNW,300,2.0,7.0,88,0.00,,,0.00,0,weatherlink.com 1.10,2013-05-24 09:50:00,
2013-05-24 03:05:00,49.2,46.0,29.98,WNW,288,1.0,7.0,88,0.00,,,0.00,0,weatherlink.com 1.10,2013-05-24 10:05:00,
2013-05-24 03:20:00,49.0,46.0,29.98,West,268,0.0,5.0,89,0.00,,,0.00,0,weatherlink.com 1.10,2013-05-24 10:20:00,
2013-05-24 03:35:00,49.1,46.0,29.98,WSW,244,2.0,6.0,89,0.00,,,0.00,0,weatherlink.com 1.10,2013-05-24 10:35:00,
2013-05-24 03:50:00,48.9,46.0,29.98,West,269,1.0,5.0,89,0.00,,,0.00,0,weatherlink.com 1.10,2013-05-24 10:50:00,
2013-05-24 04:05:00,48.5,46.0,29.98,West,268,1.0,5.0,89,0.00,,,0.00,0,weatherlink.com 1.10,2013-05-24 11:05:00,
2013-05-24 04:20:00,47.9,45.0,29.98,SW,221,2.0,5.0,89,0.00,,,0.00,0,weatherlink.com 1.10,2013-05-24 11:20:00,
2013-05-24 04:35:00,48.0,45.0,29.98,SW,216,1.0,5.0,89,0.00,,,0.00,0,weatherlink.com 1.10,2013-05-24 11:35:00,
2013-05-24 04:50:00,47.8,45.0,29.98,SSW,209,5.0,8.0,89,0.00,,,0.00,0,weatherlink.com 1.10,2013-05-24 11:50:00,
2013-05-24 05:05:00,47.6,45.0,29.98,SSW,207,1.0,5.0,89,0.00,,,0.00,0,weatherlink.com 1.10,2013-05-24 12:05:00,
2013-05-24 05:20:00,47.6,45.0,29.98,SW,223,2.0,6.0,89,0.00,,,0.00,0,weatherlink.com 1.10,2013-05-24 12:20:00,
2013-05-24 05:35:00,47.8,45.0,29.99,WSW,240,2.0,6.0,89,0.00,,,0.00,0,weatherlink.com 1.10,2013-05-24 12:35:00,
2013-05-24 05:50:00,47.7,45.0,29.99,WSW,249,1.0,7.0,89,0.00,,,0.00,5,weatherlink.com 1.10,2013-05-24 12:50:00,
2013-05-24 06:05:00,47.8,45.0,29.99,West,259,2.0,6.0,89,0.00,,,0.00,14,weatherlink.com 1.10,2013-05-24 13:05:00,
2013-05-24 06:21:00,48.2,46.0,29.99,West,261,2.0,8.0,90,0.00,,,0.00,26,weatherlink.com 1.10,2013-05-24 13:21:00,
2013-05-24 06:36:00,47.7,44.0,29.99,SSW,202,2.0,5.0,88,0.00,,,0.00,39,weatherlink.com 1.10,2013-05-24 13:36:00,
2013-05-24 06:51:00,48.5,45.0,29.99,SW,227,1.0,4.0,87,0.00,,,0.00,139,weatherlink.com 1.10,2013-05-24 13:51:00,
2013-05-24 07:06:00,49.7,46.0,29.99,WSW,253,1.0,7.0,87,0.00,,,0.00,193,weatherlink.com 1.10,2013-05-24 14:06:00,
2013-05-24 07:21:00,49.7,46.0,30.00,WSW,248,4.0,11.0,87,0.00,,,0.00,255,weatherlink.com 1.10,2013-05-24 14:21:00,
2013-05-24 07:36:00,50.0,46.0,30.00,WNW,293,3.0,10.0,87,0.00,,,0.00,302,weatherlink.com 1.10,2013-05-24 14:36:00,
2013-05-24 07:51:00,51.2,47.0,30.01,NW,310,8.0,9.0,85,0.00,,,0.00,355,weatherlink.com 1.10,2013-05-24 14:51:00,
2013-05-24 08:06:00,51.3,47.0,30.01,WNW,295,4.0,10.0,84,0.00,,,0.00,411,weatherlink.com 1.10,2013-05-24 15:06:00,
2013-05-24 08:21:00,53.5,47.0,30.00,WNW,291,4.0,8.0,79,0.00,,,0.00,464,weatherlink.com 1.10,2013-05-24 15:21:00,
2013-05-24 08:36:00,54.6,48.0,30.01,West,279,6.0,6.0,77,0.00,,,0.00,513,weatherlink.com 1.10,2013-05-24 15:36:00,
2013-05-24 08:51:00,55.6,47.0,30.01,NW,309,5.0,7.0,72,0.00,,,0.00,566,weatherlink.com 1.10,2013-05-24 15:51:00,
2013-05-24 09:06:00,56.4,47.0,30.01,West,278,5.0,10.0,71,0.00,,,0.00,617,weatherlink.com 1.10,2013-05-24 16:06:00,
2013-05-24 09:21:00,58.2,48.0,30.01,WSW,246,4.0,8.0,68,0.00,,,0.00,657,weatherlink.com 1.10,2013-05-24 16:21:00,
2013-05-24 09:36:00,58.6,47.0,30.01,WNW,284,6.0,12.0,65,0.00,,,0.00,705,weatherlink.com 1.10,2013-05-24 16:36:00,
2013-05-24 09:51:00,59.6,47.0,30.01,WSW,252,7.0,10.0,63,0.00,,,0.00,747,weatherlink.com 1.10,2013-05-24 16:51:00,
2013-05-24 10:07:00,61.5,47.0,30.01,West,269,5.0,9.0,60,0.00,,,0.00,784,weatherlink.com 1.10,2013-05-24 17:07:00,
2013-05-24 10:22:00,62.4,45.0,30.00,WSW,257,3.0,10.0,53,0.00,,,0.00,821,weatherlink.com 1.10,2013-05-24 17:22:00,
2013-05-24 10:37:00,63.1,45.0,30.00,West,262,4.0,9.0,52,0.00,,,0.00,853,weatherlink.com 1.10,2013-05-24 17:37:00,
2013-05-24 10:52:00,63.9,44.0,30.00,WSW,258,4.0,11.0,49,0.00,,,0.00,879,weatherlink.com 1.10,2013-05-24 17:52:00,
2013-05-24 11:07:00,65.5,42.0,30.00,WSW,249,5.0,11.0,43,0.00,,,0.00,905,weatherlink.com 1.10,2013-05-24 18:07:00,
2013-05-24 11:22:00,66.0,43.0,30.00,NW,311,7.0,10.0,43,0.00,,,0.00,928,weatherlink.com 1.10,2013-05-24 18:22:00,
2013-05-24 11:37:00,66.5,43.0,29.99,WNW,291,3.0,10.0,42,0.00,,,0.00,946,weatherlink.com 1.10,2013-05-24 18:37:00,
2013-05-24 11:52:00,67.9,42.0,29.99,NW,316,3.0,10.0,39,0.00,,,0.00,962,weatherlink.com 1.10,2013-05-24 18:52:00,
2013-05-24 12:07:00,68.1,42.0,29.99,West,263,5.0,14.0,39,0.00,,,0.00,972,weatherlink.com 1.10,2013-05-24 19:07:00,
2013-05-24 12:22:00,68.2,43.0,29.99,West,277,4.0,11.0,40,0.00,,,0.00,979,weatherlink.com 1.10,2013-05-24 19:22:00,
2013-05-24 12:37:00,68.8,43.0,29.99,WNW,282,10.0,14.0,39,0.00,,,0.00,981,weatherlink.com 1.10,2013-05-24 19:37:00,
2013-05-24 12:52:00,69.1,41.0,29.98,WSW,248,5.0,11.0,36,0.00,,,0.00,983,weatherlink.com 1.10,2013-05-24 19:52:00,
2013-05-24 13:07:00,68.5,42.0,29.99,WNW,287,5.0,13.0,38,0.00,,,0.00,970,weatherlink.com 1.10,2013-05-24 20:07:00,
2013-05-24 13:22:00,68.8,40.0,29.98,WNW,302,6.0,13.0,35,0.00,,,0.00,970,weatherlink.com 1.10,2013-05-24 20:22:00,
2013-05-24 13:37:00,69.2,41.0,29.98,West,273,9.0,13.0,36,0.00,,,0.00,960,weatherlink.com 1.10,2013-05-24 20:37:00,
2013-05-24 13:52:00,69.5,43.0,29.97,WNW,299,4.0,15.0,38,0.00,,,0.00,937,weatherlink.com 1.10,2013-05-24 20:52:00,
2013-05-24 14:07:00,69.9,43.0,29.97,NW,305,3.0,17.0,38,0.00,,,0.00,921,weatherlink.com 1.10,2013-05-24 21:07:00,
2013-05-24 14:22:00,69.2,44.0,29.98,WNW,285,10.0,18.0,40,0.00,,,0.00,898,weatherlink.com 1.10,2013-05-24 21:22:00,
2013-05-24 14:37:00,69.6,41.0,29.97,West,281,6.0,15.0,36,0.00,,,0.00,868,weatherlink.com 1.10,2013-05-24 21:37:00,
2013-05-24 14:52:00,70.2,42.0,29.97,WNW,287,4.0,14.0,36,0.00,,,0.00,840,weatherlink.com 1.10,2013-05-24 21:52:00,
2013-05-24 15:07:00,70.2,42.0,29.96,WNW,303,8.0,13.0,36,0.00,,,0.00,809,weatherlink.com 1.10,2013-05-24 22:07:00,
2013-05-24 15:22:00,70.2,39.0,29.96,WSW,251,6.0,18.0,32,0.00,,,0.00,775,weatherlink.com 1.10,2013-05-24 22:22:00,
2013-05-24 15:37:00,69.8,40.0,29.95,West,265,7.0,16.0,34,0.00,,,0.00,735,weatherlink.com 1.10,2013-05-24 22:37:00,
2013-05-24 15:52:00,69.1,42.0,29.95,West,263,9.0,16.0,37,0.00,,,0.00,691,weatherlink.com 1.10,2013-05-24 22:52:00,
2013-05-24 16:07:00,67.6,42.0,29.95,NW,306,3.0,19.0,40,0.00,,,0.00,652,weatherlink.com 1.10,2013-05-24 23:07:00,
2013-05-24 16:22:00,66.2,42.0,29.96,West,275,11.0,19.0,42,0.00,,,0.00,603,weatherlink.com 1.10,2013-05-24 23:22:00,
2013-05-24 16:37:00,65.4,43.0,29.96,NW,304,12.0,17.0,44,0.00,,,0.00,563,weatherlink.com 1.10,2013-05-24 23:37:00,
2013-05-24 16:52:00,65.4,43.0,29.96,WNW,302,6.0,14.0,45,0.00,,,0.00,512,weatherlink.com 1.10,2013-05-24 23:52:00,
2013-05-24 17:07:00,65.0,44.0,29.96,West,269,4.0,13.0,46,0.00,,,0.00,455,weatherlink.com 1.10,2013-05-25 00:07:00,
2013-05-24 17:22:00,64.9,43.0,29.96,West,279,3.0,13.0,46,0.00,,,0.00,415,weatherlink.com 1.10,2013-05-25 00:22:00,
2013-05-24 17:37:00,63.8,42.0,29.96,WNW,297,3.0,16.0,46,0.00,,,0.00,374,weatherlink.com 1.10,2013-05-25 00:37:00,
2013-05-24 17:52:00,62.9,43.0,29.96,WNW,296,6.0,15.0,48,0.00,,,0.00,316,weatherlink.com 1.10,2013-05-25 00:52:00,
2013-05-24 18:07:00,62.0,43.0,29.96,West,259,6.0,14.0,51,0.00,,,0.00,265,weatherlink.com 1.10,2013-05-25 01:07:00,
2013-05-24 18:22:00,60.0,44.0,29.96,WNW,287,9.0,16.0,56,0.00,,,0.00,211,weatherlink.com 1.10,2013-05-25 01:22:00,
2013-05-24 18:37:00,58.8,45.0,29.97,West,277,5.0,16.0,60,0.00,,,0.00,151,weatherlink.com 1.10,2013-05-25 01:37:00,
2013-05-24 18:52:00,57.9,45.0,29.96,West,279,9.0,13.0,62,0.00,,,0.00,98,weatherlink.com 1.10,2013-05-25 01:52:00,
2013-05-24 19:07:00,56.6,45.0,29.96,SW,217,7.0,16.0,65,0.00,,,0.00,60,weatherlink.com 1.10,2013-05-25 02:07:00,
2013-05-24 19:22:00,55.8,45.0,29.97,WSW,246,7.0,12.0,67,0.00,,,0.00,35,weatherlink.com 1.10,2013-05-25 02:22:00,
2013-05-24 19:37:00,54.8,44.0,29.97,WSW,253,3.0,10.0,68,0.00,,,0.00,28,weatherlink.com 1.10,2013-05-25 02:37:00,
2013-05-24 19:52:00,54.1,45.0,29.97,WSW,238,7.0,11.0,70,0.00,,,0.00,19,weatherlink.com 1.10,2013-05-25 02:52:00,
2013-05-24 20:07:00,53.5,44.0,29.98,SSW,209,0.0,7.0,71,0.00,,,0.00,9,weatherlink.com 1.10,2013-05-25 03:07:00,
2013-05-24 20:22:00,52.7,44.0,29.97,West,271,5.0,10.0,73,0.00,,,0.00,0,weatherlink.com 1.10,2013-05-25 03:22:00,
2013-05-24 20:37:00,52.3,45.0,29.98,West,261,3.0,8.0,75,0.00,,,0.00,0,weatherlink.com 1.10,2013-05-25 03:37:00,
2013-05-24 20:53:00,51.7,44.0,29.98,SW,231,5.0,7.0,76,0.00,,,0.00,0,weatherlink.com 1.10,2013-05-25 03:53:00,
2013-05-24 21:07:00,51.3,44.0,29.98,South,188,3.0,7.0,77,0.00,,,0.00,0,weatherlink.com 1.10,2013-05-25 04:07:00,
2013-05-24 21:22:00,51.0,44.0,29.98,WSW,256,7.0,15.0,78,0.00,,,0.00,0,weatherlink.com 1.10,2013-05-25 04:22:00,
2013-05-24 21:37:00,50.9,44.0,29.98,WSW,245,2.0,9.0,78,0.00,,,0.00,0,weatherlink.com 1.10,2013-05-25 04:37:00,
2013-05-24 21:52:00,50.7,44.0,29.98,SSW,201,11.0,14.0,79,0.00,,,0.00,0,weatherlink.com 1.10,2013-05-25 04:52:00,
2013-05-24 22:08:00,50.5,45.0,29.99,SW,215,7.0,10.0,80,0.00,,,0.00,0,weatherlink.com 1.10,2013-05-25 05:08:00,
2013-05-24 22:23:00,50.5,45.0,29.99,SW,215,8.0,11.0,81,0.00,,,0.00,0,weatherlink.com 1.10,2013-05-25 05:23:00,
2013-05-24 22:38:00,50.6,45.0,29.99,WSW,253,3.0,13.0,81,0.00,,,0.00,0,weatherlink.com 1.10,2013-05-25 05:38:00,
2013-05-24 22:53:00,50.3,45.0,29.99,West,261,1.0,12.0,81,0.00,,,0.00,0,weatherlink.com 1.10,2013-05-25 05:53:00,
2013-05-24 23:08:00,50.2,45.0,29.99,WNW,291,2.0,9.0,81,0.00,,,0.00,0,weatherlink.com 1.10,2013-05-25 06:08:00,
2013-05-24 23:23:00,50.1,45.0,29.99,WNW,286,4.0,7.0,81,0.00,,,0.00,0,weatherlink.com 1.10,2013-05-25 06:23:00,
2013-05-24 23:38:00,50.2,45.0,29.99,West,259,7.0,8.0,82,0.00,,,0.00,0,weatherlink.com 1.10,2013-05-25 06:38:00,
2013-05-24 23:53:00,50.2,45.0,29.99,West,262,0.0,6.0,82,0.00,,,0.00,0,weatherlink.com 1.10,2013-05-25 06:53:00,